Regional Weather Roundup
Issued by NWS Sioux Falls, SD

Home | Current Version | Previous Version | Graphics & Text | Print | Product List | Glossary Off
Versions: 1 2 3 4 5 6 7 8 9 10 11 12 13 14 15 16 17 18 19 20 21 22 23 24 25 26 27 28 29 30 31 32 33 34 35 36 37 38 39 40 41 42 43 44 45 46 47 48 49 50

000
ASUS43 KFSD 310502
RWRFSD

WEATHER ROUNDUP FOR SE SOUTH DAKOTA/SW MINNESOTA/NW IOWA
NATIONAL WEATHER SERVICE SIOUX FALLS SD
1200 AM CDT MON AUG 31 2015

NOTE: "FAIR" INDICATES FEW OR NO CLOUDS BELOW 12,000 FEET WITH NO
SIGNIFICANT WEATHER AND OR OBSTRUCTIONS TO VISIBILITY.


SDZ038>040-050-052>070-310600-
SOUTHEAST SOUTH DAKOTA

CITY           SKY/WX    TMP DP  RH WIND       PRES   REMARKS
BROOKINGS      CLOUDY    66  63  88 S16G22    29.90R
CHAMBERLAIN    CLEAR     70  65  82 SE10      29.78S
HURON          CLEAR     69  65  86 S15       29.79R
MADISON        MOCLDY    64  64 100 S17G23    29.88S
MITCHELL       CLEAR     69  66  90 S18G25    29.83R
SIOUX FALLS    CLOUDY    67  64  90 S14       29.90F
WINNER         FAIR      77  59  53 S23G32    29.77R
YANKTON        PTCLDY    66  64  94 S9        29.88F
$$

MNZ071-072-080-081-089-090-097-098-310600-
SOUTHWEST MINNESOTA

CITY           SKY/WX    TMP DP  RH WIND       PRES   REMARKS
FAIRMONT       CLEAR     66  61  82 S10       29.95S
JACKSON        PTCLDY    66  64  94 S12       29.96S FOG
LUVERNE          N/A     64  63  94 S6        29.93S FOG
MARSHALL       MOCLDY    66  61  82 SW22      29.87F
MONTEVIDEO     PTCLDY    64  64 100 S10       29.87S
PIPESTONE      CLOUDY    66  64  94 S13G18    29.92S FOG
REDWOOD FALLS  MOCLDY    67  64  90 S9        29.89F
TRACY          MOCLDY    67  65  92 S17G23    29.89S
WINDOM         PTCLDY    66  64  94 S12       29.94S
WORTHINGTON    PTCLDY    64  61  88 S12       29.94S
$$

IAZ001>003-012>014-020>022-031-032-NEZ013-014-SDZ071-310600-
NORTHWEST IOWA

CITY           SKY/WX    TMP DP  RH WIND       PRES   REMARKS
DENISON        CLOUDY    66  66 100 S8        29.96S
ESTHERVILLE    CLEAR     62  62 100 S8        29.96S FOG
SIOUX CITY     NOT AVBL
SPENCER        FOG       62  60  93 S5        29.96S VSB 1
$$

ABBREVIATIONS USED IN REMARKS
   TC - TEMPERATURE IN CELSIUS
  WCI - WIND CHILL INDEX
   HX - HEAT INDEX
  VSB - VISIBILITY




USA.gov is the U.S. government's official web portal to all federal, state and local government web resources and services.